Location: Helsinki
(60.1699°N, 24.9384°E)
Time: 20:53:10
(UTC+03:00)

A-11 Canister half - Pass Details

Date: 28 May 2024
Orbit: 1525 x 1683 km, 47.3° (Epoch: 14 June)

Event Time Altitude Azimuth Distance (km) Brightness Sun altitude
Rises 02:06:42 0° 271° (W) 4,734 11.5 -7.7°
Reaches altitude 10° 02:10:13 10° 261° (W) 3,770 10.8 -7.6°
Maximum altitude 02:18:00 29° 206° (SSW) 2,600 9.7 -7.4°
Drops below altitude 10° 02:25:59 10° 151° (SSE) 3,867 10.7 -7.1°
Sets 02:29:39 0° 141° (SE) 4,874 11.3 -7.0°
